www.pogodaiklimat.ru

Погода и климат >> Архив погоды >> Аргентина >> Формоса


ПОГОДА в Формосе

  • Прогноз погоды в Формосе
  • Монитор погоды в Формосе

АРХИВ ПОГОДЫ в Формосе

Время (UTC), дата Ветер
(напр.,м/с)
 
Видим.   Явления Облачность Т
(С)
Тd
(С)
f
(%)
Тe
(С)
Тes
(С)
Комфортность P
(гПа)
Po
(гПа)
Тmin
(С)
Tmax
(С)
R
(мм)
R24
(мм)
S
(см)
12 12.06 СВ 6 20 км 9/4 750 м
[Sc Cs]
+24.1 +19.3 75 +29 +29 душно 1011.5 1004.6 +21.7 +24.1
15 12.06 С 7 20 км 9/0
[Cs]
+29.0 +20.0 58 +35 +37 очень
душно
1011.8 1004.9
18 12.06 С 6 20 км 9/0
[Cs]
+30.6 +21.0 57 +38 +40 очень
душно
1008.8 1001.8
21 12.06 В 7 20 км 10/0
[Cs]
+27.1 +21.5 71 +34 +34 очень
душно
1008.8 1001.8
00 13.06 В 4 20 км 10/0
[Ac As Cs]
+24.5 +21.5 83 +31 +31 очень
душно
1010.6 1003.7 +14.1 +30.9
03 13.06 В 6 20 км 10/0
[Cs]
+24.1 +21.1 83 +30 +30 очень
душно
1010.8 1003.8
06 13.06 В 5 20 км 10/0
[Cs]
+22.1 +20.6 91 +28 +28 душно 1011.2 1004.2
09 13.06 СВ 5 20 км 10/0
[Ac trans Cs]
+23.1 +18.7 76 +29 +29 очень
душно
1011.2 1004.2
12 13.06 СВ 7 20 км 10/0
[Cs]
+23.7 +19.4 77 +29 +29 душно 1012.1 1005.2 +21.8 +24.9
15 13.06 С 7 20 км 10/0
[Cs]
+29.8 +19.0 52 +35 +37 очень
душно
1012.1 1005.2
18 13.06 С 8 20 км 10/0
[Cs]
+31.0 +19.0 49 +36 +37 очень
душно
1008.9 1002.0
21 13.06 СВ 3 20 км 10/0
[Ac trans Cs]
+28.1 +19.1 58 +33 +33 очень
душно
1008.1 1001.2
00 14.06 СВ 6 20 км 10/0
[Cs]
+24.4 +19.8 76 +30 +30 очень
душно
1009.8 1002.9 +23.7 +31.4
03 14.06 СВ 5 20 км 10/0
[Cs]
+23.3 +18.9 76 +30 +30 очень
душно
1011.6 1004.6
06 14.06 СВ 6 20 км 10/0
[Ac trans Cs]
+23.7 +18.2 71 +28 +28 душно 1012.0 1005.0
09 14.06 С 3 20 км 10/4 900 м
[Sc Ac trans Cs]
+22.7 +18.1 75 +28 +28 душно 1012.3 1005.4
12 14.06 С 4 20 км 10/0
[Ac trans Cs]
+23.1 +18.1 73 +29 +29 очень
душно
1013.9 1006.9 +22.0 +24.4
15 14.06 СВ 6 20 км 10/0
[Ac trans Cs]
+28.5 +18.7 55 +34 +36 очень
душно
1014.0 1007.0
18 14.06 С 6 20 км 10/0
[Ac As Cs]
+29.3 +20.0 57 +36 +37 очень
душно
1011.7 1004.8
21 14.06 В 4 20 км 10/0
[Ac trans Cs]
+26.3 +21.2 74 +33 +33 очень
душно
1011.3 1004.4
00 15.06 В 4 20 км 10/0
[Ac As Cs]
+25.0 +20.6 77 +31 +31 очень
душно
1012.3 1005.4 +23.1 +30.3
03 15.06 СВ 5 20 км 10/0
[Ac trans Cs]
+24.4 +20.0 76 +30 +30 очень
душно
1012.8 1005.9
06 15.06 В 4 20 км 10/3 750 м
[Sc Ac As Cs]
+23.4 +19.7 80 +30 +30 очень
душно
1012.4 1005.4
09 15.06 СВ 3 20 км 10/6 750 м
[Sc Cs]
+22.4 +19.5 84 +28 +28 душно 1012.4 1005.5
12 15.06 С 5 20 км 10/3 750 м
[Sc Ac trans Cs]
+24.1 +16.3 62 +28 +28 душно 1014.1 1007.2 +21.3 +25.5
15 15.06 СВ 6 20 км 10/4 750 м
[Sc Ac trans Cs]
+28.5 +19.0 56 +34 +35 очень
душно
1014.5 1007.6
18 15.06 С 4 20 км 10/1 900 м
[Sc Ac trans Cs]
+29.5 +19.4 55 +35 +37 очень
душно
1012.2 1005.3
21 15.06 В 5 20 км 10/0
[Ac As Cs]
+26.3 +19.4 66 +32 +32 очень
душно
1012.1 1005.2
00 16.06 В 2 20 км 10/0
[Ac trans Cs]
+23.8 +20.0 79 +29 +29 душно 1014.5 1007.5 +23.6 +30.4
03 16.06 СВ 5 20 км 10/0
[Cs]
+23.8 +19.7 78 +29 +29 душно 1015.0 1008.1
06 16.06 З 3 20 км 9/0
[Ac trans Cs]
+21.5 +20.1 92 +27 +27 душно 1016.1 1009.2
09 16.06 З 5 500 м туман 10/10 120 м
[St]
+18.2 +18.2 100 +18 +18 1016.8 1009.8
12 16.06 ЮЗ 3 10 км слаб. морось {туман} 10/10 180 м
[St]
+16.7 +15.7 94 +16 +16 1019.9 1012.8 +16.6 +23.9 0.0
15 16.06 ЮЗ 4 20 км {морось} 10/10 240 м
[St]
+18.1 +15.9 87 +18 +18 1020.6 1013.6
18 16.06 Ю 4 20 км {морось} 10/10 240 м
[St]
+18.1 +15.4 84 +18 +18 1018.5 1011.4 0.0
21 16.06 ЮЗ 4 20 км 10/10 240 м
[St]
+17.2 +15.7 91 +17 +17 1019.3 1012.2
00 17.06 ЮЗ 4 8000 м слаб. морось 10/10 240 м
[St]
+16.0 +15.0 94 +15 +15 1021.0 1013.8 +15.9 +18.2 0.0
03 17.06 ЮЗ 2 20 км {морось} 10/10 240 м
[St]
+15.3 +15.0 98 +15 +15 1021.9 1014.6
06 17.06 З 2 20 км {морось} 10/10 240 м
[St]
+15.1 +14.8 98 +15 +15 1020.6 1013.4 0.0
09 17.06 З 2 900 м морось {туман} туман 10/10 240 м
[St]
+15.0 +14.7 98 +15 +15 1020.1 1012.9
12 17.06 З 2 500 м слаб. морось {туман} туман 10/10 180 м
[St]
+15.0 +14.8 99 +15 +15 1021.0 1013.8 +14.1 +16.0 0.0
15 17.06 З 2 500 м туман 10/10 150 м
[St]
+17.0 +16.3 96 +17 +17 1020.4 1013.2
18 17.06 В 2 5000 м дымка {туман} 10/10 240 м
[St]
+18.0 +16.7 92 +19 +19 1016.8 1009.7 0.0
21 17.06 З 4 1200 м морось туман 10/10 150 м
[St]
+16.5 +16.2 98 +16 +16 1016.4 1009.2
00 18.06 штиль 0 20 км {морось} 9/5 240 м
[St Ac trans Cs]
+15.3 +15.0 98 +15 +15 1015.5 1008.2 +15.0 +18.7 0.0
03 18.06 штиль 0 20 км 10/5 240 м
[St Ac trans Cs]
+14.3 +13.9 97 +14 +14 1015.6 1008.4
06 18.06 З 4 100 м туман 10/10 150 м
[St]
+15.1 +15.1 100 +14 +14 1015.3 1008.2
09 18.06 З 3 5000 м дымка {туман} 10/10 150 м
[St]
+15.1 +14.8 98 +14 +14 1014.9 1007.7
12 18.06 З 4 1000 м слаб. морось {туман} туман 10/10 90 м
[St]
+14.7 +14.4 98 +14 +14 1017.2 1010.0 +14.1 +15.3 0.0
15 18.06 ЮЗ 4 20 км {морось} 10/10 120 м
[St]
+15.6 +14.7 94 +15 +15 1018.1 1010.9
18 18.06 ЮЗ 4 20 км {морось} 10/10 180 м
[St]
+16.0 +14.6 91 +15 +15 1016.0 1008.8 0.0
21 18.06 ЮЗ 2 20 км {морось} 10/10 150 м
[St]
+15.4 +14.4 94 +15 +15 1016.0 1008.8
00 19.06 ЮЗ 3 20 км в посл. час дождь {морось} 10/10 150 м
[St]
+14.7 +13.6 93 +14 +14 1017.4 1010.2 +13.9 +16.3 0.3
03 19.06 З 3 20 км 10/10 240 м
[St]
+14.8 +14.1 96 +14 +14 1019.1 1012.0
06 19.06 ЮЗ 4 9000 м слаб. дождь 10/9 210 м
[St As op]
+13.9 +13.0 94 +12 +12 1019.7 1012.5 1
09 19.06 Ю 4 20 км {дождь} 10/10 600 м
[Sc]
+14.2 +13.3 94 +13 +13 1019.3 1012.1

 

Местоположение метеостанции Формоса (Аргентина): широта -26.20 долгота -58.23 высота над уровнем моря 60 м.

В архиве по умолчанию представлена погода в Формосе за последнюю неделю. Архивные данные за месяц целиком и за предыдущие месяцы, начиная с января 2011 года, Вы можете получить, выбрав интересующий диапазон дат из раскрывающегося списка и нажав кнопку "Ввод!".


*Определитесь, кто Вы:
робот инопланетянин человек

Внимание! Время в таблицах - всемирное. Для получения местного времени необходимо прибавить поправку, которая равна -3 ч.

Смотрите также архив погоды в соседних городах и на ближайших метеорологических станциях:

Погода в Пиларе (Парагвай) (73 км)
Погода в Сан Хуан Батистута (Парагвай) (119 км)
Погода в Куйкуйо (Парагвай) (125 км)
Погода в Парагуари (Парагвай) (127 км)
Погода в Асунсьоне (Парагвай) (128 км)
Погода в Корриентесе (Аргентина) (149 км)
Погода в Ресистенсии (Аргентина) (161 км)
Погода в Грал Бругуез (Парагвай) (171 км)
Погода в Вильяррике (Парагвай) (187 км)
Погода в Каасапе (Парагвай) (188 км)

Пояснения к столбцам:

Ветер - указаны скорость ветра в м/с - средняя за 10 мин, порывы в срок и между сроками (в фигурных скобках) и направление, откуда дует ветер: С - северный, СВ - северо-восточный, В - восточный, ЮВ - юго-восточный, Ю - южный, ЮЗ - юго-западный, З - западный, СЗ - северо-западный.
Видимость - горизонтальная дальность видимости в метрах или километрах. При видимости от 1 до 10 км при отсутствии осадков обычно наблюдается дымка, при ухудшении видимости до 1 км и менее - туман. В сухую погоду видимость может ухудшаться дымом, пылью или мглою.
Явления - указаны атмосферные явления, наблюдавшиеся в срок или в последний час перед сроком; фигурными скобками обозначены явления, наблюдавшиеся между сроками (за 1-3 часа до срока); квадратными скобками обозначены град или гололедные отложения с указанием их диаметра в мм.
Облачность - указаны через наклонную черту общая и нижняя облачность в баллах и высота нижней границы облаков в метрах; квадратными скобками обозначены формы облаков: Ci - перистые, Cs - перисто-слоистые, Cc - перисто-кучевые, Ac - высококучевые, As - высокослоистые, Sc - слоисто-кучевые, Ns - слоисто-дождевые, Cu - кучевые, Cb - кучево-дождевые. Подробнее классификацию облаков см. в Атласе облаков (PDF).
T - Температура воздуха - температура, измеренная на высоте 2 м над землей.
Td - Температура точки росы - температура, при понижении до которой содержащийся в воздухе водяной пар достигнет насыщения.
f - Относительная влажность воздуха - влажноcть воздуха, измеренная на высоте 2 м над землей.
Te - Эффективная температура - температура, которую ощущает одетый по сезону человек в тени. Характеристика душности погоды. При расчете учитывается влияние влажности воздуха и скорости ветра на теплоощущения человека.
Tes - Эффективная температура на солнце - температура, которую ощущает человек, с поправкой на солнечный нагрев. Характеристика знойности погоды. Зависит от высоты солнца над горизонтом, облачности и скорости ветра. Ночью, в пасмурную погоду, а также при ветре 12 м/с и более поправка равна нулю.
P - Атмосферное давление - приведенное к уровню моря атмосферное давление.
Po - Атмосферное давление - измеренное на уровне метеостанции атмосферное давление.
Tmin - Минимальная температура - минимум температуры воздуха на высоте 2 м над землей.
Tmax - Максимальная температура - максимум температуры воздуха на высоте 2 м над землей.
R - Количество осадков - Количество выпавших осадков за период времени, мм. При наведении курсора мыши на число - период времени, за который выпало указанное количество осадков.
R24 - Количество осадков - Количество выпавших осадков за 24 часа, мм.
S - Снежный покров - Высота снежного покрова, см. При наведении курсора мыши на число - состояние снежного покрова и степень покрытия местности в баллах.